Regional Weather Roundup
Issued by NWS

Current Version | Previous Version | Text Only | Print | Product List | Glossary On
Versions: 1 2 3 4 5 6 7 8 9 10 11 12 13 14 15 16 17 18 19 20 21 22 23 24 25 26 27 28 29 30 31 32 33 34 35 36 37 38 39 40 41 42 43 44 45 46 47 48 49 50
000
ASUS44 KFWD 030715
RWRTX
NORTH TEXAS HOURLY WEATHER ROUNDUP
NATIONAL WEATHER SERVICE FORT WORTH TX
100 AM CST TUE MAR 03 2015

NOTE: "FAIR" INDICATES FEW OR NO CLOUDS BELOW 12,000 FEET WITH NO
SIGNIFICANT WEATHER AND/OR OBSTRUCTIONS TO VISIBILITY.

TXZ118-119-030800-
DALLAS/FORT WORTH METROPLEX

CITY           SKY/WX    TMP DP  RH WIND       PRES   REMARKS
DFW AIRPORT    DRZL/FOG  40  40 100 CALM      30.10F VSB<1/4
DALLAS LOVE    DRZL/FOG  42  42 100 S6        30.12F VSB 3/4 WCI  38
FTW MEACHAM    FOG       40  38  93 CALM      30.10F VSB 1/4
DAL-EXECUTIVE  LGT RAIN  41  40  96 SE3       30.10F VSB 1/4
FTW-ALLIANCE   DRZL/FOG  38  38 100 SW5       30.11F VSB 1/4 WCI  34
FTW-SPINKS     FOG       40  39  97 S3        30.13F VSB 3/4
ARLINGTON      FOG       41  39  93 S3        30.12F VSB 3/4
GRAND PRAIRIE    N/A    N/A N/A N/A MISG        N/A
ADDISON        FOG       42  42 100 S5        30.13F VSB 1/2 WCI  39
MESQUITE       CLOUDY    41  41  98 CALM      30.13F VSB 1/2
LANCASTER      FOG       40  39  95 CALM      30.14F VSB 1/2
$$

TXZ091>094-102>105-117-120-121-131>134-030800-
NORTH CENTRAL TEXAS

CITY           SKY/WX    TMP DP  RH WIND       PRES   REMARKS
SHRMAN/DENISON FOG       41  41 100 S6        30.12F VSB 1   WCI  37
GAINESVILLE    DRZL/FOG  38  38  99 S7        30.12F VSB 1/2 WCI  33
BOWIE          FOG       37  37 100 S6        30.08F VSB 1   WCI  32
BRIDGEPORT     CLOUDY    37  37 100 CALM      30.11F FOG
DECATUR        FOG       37  37 100 S6        30.09F VSB 1/2 WCI  32
DENTON         FOG       39  39 100 SW5       30.11F VSB 1/4 WCI  36
MCKINNEY       FOG       41  41 100 SE5       30.11F VSB 1/2 WCI  38
GREENVILLE     FOG       41  39  93 CALM      30.13F VSB 3/4
TERRELL        FOG       43  41  93 E8        30.11F VSB 1/2 WCI  38
WAXAHACHIE     LGT RAIN  40  40 100 CALM      30.13F VSB 1/2
CLEBURNE       FOG       39  39 100 CALM      30.12F VSB<1/4
GRANBURY       FOG       39  38  95 CALM      30.12F VSB 1/2
$$

TXZ083>090-098>101-113>116-127>130-139>142-154-155-030800-
WESTERN NORTH TEXAS

CITY           SKY/WX    TMP DP  RH WIND       PRES   REMARKS
WICHITA FALLS  DRIZZLE   37  34  89 S13       30.06F FOG     WCI  29
WF-KICKAPOO    CLOUDY    38  36  92 S9        30.08F FOG     WCI  32
VERNON         CLOUDY    39  32  77 S10       30.05F WCI  32
ABILENE        CLOUDY    38  36  92 SW5       30.07F WCI  34
ABILENE-DYESS  CLOUDY    38  36  92 SW7       30.05F WCI  33
BRECKENRIDGE   CLOUDY    37  37 100 CALM      30.08F FOG
GRAHAM         CLOUDY    35  35 100 CALM      30.08F FOG
MINERAL WELLS  FOG       36  36 100 S5        30.09F VSB 1/4 WCI  32
STEPHENVILLE     N/A     37  36  95 S3        30.12F VSB 1/4
COMANCHE       FOG       37  37 100 SE3       30.09F VSB 1/4
BROWNWOOD      FOG       37  37 100 SE7       30.10F VSB 1/2 WCI  32
COLEMAN        FOG       38  38 100 S7        30.07F VSB 1/2 WCI  32
BRADY          FOG       37  37 100 SE5       30.06F VSB 1/4 WCI  34
$$

TXZ143>147-156>162-174-175-030800-
CENTRAL TEXAS

CITY           SKY/WX    TMP DP  RH WIND       PRES   REMARKS
WACO           FOG       40  39  97 CALM      30.14F VSB 3/4
WACO-MCGREGOR    N/A     39  36  87 CALM      30.14F VSB 1
HILLSBORO      FOG       40  39  95 CALM      30.12F VSB 1/2
CORSICANA      FOG       44  43  96 CALM      30.14F VSB 1/4
MEXIA          CLOUDY    42  41  98 CALM      30.12F FOG
HEARNE         CLOUDY    43  43 100 NW5       30.15F FOG
CAMERON        CLOUDY    42  42  99 CALM      30.13F FOG
TEMPLE         CLOUDY    39  36  87 CALM      30.12F VSB 1/2
KILLEEN        FOG       39  39 100 SE2       30.10F VSB 1/2
KILLEEN-SKYLRK CLOUDY    41  36  81 CALM      30.10F
GATESVILLE     CLOUDY    39  39 100 CALM      30.13F FOG
HAMILTON       FOG       39  39 100 CALM      30.11F VSB 1/4
LAMPASAS       FOG       40  40  98 SE3       30.09F VSB 1/2
$$

TXZ095>097-106>112-122>126-135>138-148>153-164>167-030800-
EAST TEXAS

CITY           SKY/WX    TMP DP  RH WIND       PRES   REMARKS
PARIS          CLOUDY    37  36  93 E8        30.14F WCI  31
SULPHUR SPRNGS FOG       40  40 100 SE6       30.15F VSB 3/4 WCI  36
MOUNT PLEASANT CLOUDY    40  40 100 SE6       30.16F WCI  36
GILMER         CLOUDY    40  40 100 SE6       30.15S FOG     WCI  36
MINEOLA        CLOUDY    43  43 100 CALM      30.14F FOG
TYLER          CLOUDY    44  42  93 SE6       30.12F FOG
LONGVIEW       FOG       43  41  93 CALM      30.14F VSB 3/4
MARSHALL       CLOUDY    42  40  93 CALM      30.17F VSB 3/4
ATHENS         CLOUDY    43  43 100 SE5       30.12F FOG
PALESTINE      FOG       46  46 100 E3        30.15S VSB 3/4
JACKSONVILLE   FOG       44  44  99 CALM      30.14F VSB 1/4
HENDERSON      CLOUDY    42  42 100 CALM      30.15F VSB 1/2
NACOGDOCHES    CLOUDY    45  43  93 SE3       30.15F
LUFKIN         FOG       49  46  90 E6        30.14F VSB 1
$$

SUPPLEMENTAL OBSERVATIONS (CENTRAL)

CITY           SKY/WX    TMP DP  RH WIND       PRES   REMARKS
$$

SUPPLEMENTAL OBSERVATIONS (WEST)

CITY           SKY/WX    TMP DP  RH WIND       PRES   REMARKS
$$

SUPPLEMENTAL OBSERVATIONS (EAST)

CITY           SKY/WX    TMP DP  RH WIND       PRES   REMARKS
$$

SUPPLEMENTAL OBSERVATIONS ARE A COLLECTION OF AUTOMATED INSTRUMENTS
THAT ARE MAINTAINED BY A VARIETY OF FEDERAL AND STATE AGENCIES.
CERTAIN ELEMENTS...SUCH AS HUMIDITY VALUES AND SUSTAINED WIND
SPEEDS...MAY BE APPROXIMATED.




USA.gov is the U.S. government's official web portal to all federal, state and local government web resources and services.